contact:dominique.lefevre@mio.osupytheas.fr, maurice.libes@osupytheas.fr
Project:EMSO Ligure-ouest http://www.emso-fr.org/EMSO-France
Sensor Aquadopp, line 04 Serial AQD8517 
DOI : "https://doi.org/10.17882/74513; https://doi.org/10.17882/83244" 
Title:EMSO Ligure Ouest : Data ligne ALBATROSS capteur AQUADOPP - deploiement 2021
Id,Date,Profondeur,Latitude,Longitude,X_East,Y_North,Z_Up,Amplitude_X,Amplitude_Y,Amplitude_Z,Batterie,SoundSpeed,Heading,Pitch,Roll,Pressure,Temperature,Speed,Direction
, , m, degrees North, degrees East, m.s-1, m.s-1,m.s-1, 1, 1, 1, Volt, m.s-1, degree, degree, degree, dbar, degree_C, m.s-1, degree
04,2021-11-01T21:30:00,1000.0,42.79,6.0312,-0.012,0.027,0.025,59.0,61.0,58.0,12.8,1504.5,352.5,-0.5,-0.3,967.731,13.24,0.029,336.0
04,2021-11-01T22:00:00,1000.0,42.79,6.0312,-0.014,0.022,-0.006,58.0,61.0,57.0,12.8,1504.5,353.3,-0.5,-0.3,967.693,13.24,0.026,327.5
04,2021-11-01T22:30:00,1000.0,42.79,6.0312,-0.018,0.028,-0.008,59.0,60.0,57.0,12.8,1504.5,355.2,-0.5,-0.3,967.666,13.24,0.033,327.3
04,2021-11-01T23:00:00,1000.0,42.79,6.0312,-0.015,0.027,-0.003,57.0,61.0,58.0,12.8,1504.5,358.4,-0.5,-0.3,967.672,13.24,0.03,330.9
04,2021-11-01T23:30:00,1000.0,42.79,6.0312,-0.001,0.026,-0.001,60.0,61.0,57.0,12.8,1504.5,0.6,-0.5,-0.4,967.673,13.24,0.026,357.8
04,2021-11-02T00:00:00,1000.0,42.79,6.0312,0.0,0.036,0.001,59.0,60.0,58.0,12.7,1504.5,2.4,-0.5,-0.3,967.677,13.24,0.036,0.0
04,2021-11-02T00:30:00,1000.0,42.79,6.0312,0.014,0.029,0.0,59.0,62.0,57.0,12.8,1504.5,6.3,-0.5,-0.4,967.653,13.24,0.032,25.8
04,2021-11-02T01:00:00,1000.0,42.79,6.0312,0.005,0.036,-0.005,59.0,61.0,58.0,12.8,1504.6,8.5,-0.5,-0.4,967.647,13.25,0.036,7.9
04,2021-11-02T01:30:00,1000.0,42.79,6.0312,0.002,0.04,0.008,57.0,61.0,57.0,12.8,1504.6,8.3,-0.5,-0.3,967.699,13.25,0.04,2.9
04,2021-11-02T02:00:00,1000.0,42.79,6.0312,0.007,0.036,0.004,60.0,61.0,56.0,12.8,1504.6,7.3,-0.5,-0.4,967.717,13.25,0.036,11.0
04,2021-11-02T02:30:00,1000.0,42.79,6.0312,0.008,0.029,0.014,62.0,60.0,58.0,12.8,1504.6,8.0,-0.5,-0.3,967.712,13.25,0.03,15.4
04,2021-11-02T03:00:00,1000.0,42.79,6.0312,0.014,0.03,0.013,57.0,60.0,58.0,12.8,1504.5,8.5,-0.5,-0.4,967.746,13.24,0.033,25.0
04,2021-11-02T03:30:00,1000.0,42.79,6.0312,-0.009,0.028,0.002,57.0,60.0,60.0,12.8,1504.5,10.4,-0.5,-0.4,967.776,13.24,0.029,342.2
04,2021-11-02T04:00:00,1000.0,42.79,6.0312,0.008,0.03,0.006,57.0,60.0,57.0,12.8,1504.5,10.8,-0.5,-0.4,967.757,13.23,0.031,14.9
04,2021-11-02T04:30:00,1000.0,42.79,6.0312,-0.003,0.032,-0.003,56.0,57.0,56.0,12.8,1504.5,8.2,-0.5,-0.4,967.765,13.23,0.032,354.6
04,2021-11-02T05:00:00,1000.0,42.79,6.0312,0.012,0.037,0.006,57.0,61.0,57.0,12.8,1504.5,6.3,-0.5,-0.4,967.839,13.23,0.038,18.0
04,2021-11-02T05:30:00,1000.0,42.79,6.0312,0.005,0.026,-0.004,58.0,59.0,57.0,12.8,1504.5,9.2,-0.5,-0.4,967.803,13.24,0.026,10.9
04,2021-11-02T06:00:00,1000.0,42.79,6.0312,0.002,0.032,-0.007,58.0,60.0,58.0,12.8,1504.5,12.8,-0.5,-0.4,967.808,13.24,0.032,3.6
04,2021-11-02T06:30:00,1000.0,42.79,6.0312,0.008,0.029,-0.002,57.0,60.0,56.0,12.7,1504.5,15.9,-0.5,-0.4,967.794,13.24,0.03,15.4
04,2021-11-02T07:00:00,1000.0,42.79,6.0312,0.011,0.029,-0.005,56.0,60.0,57.0,12.8,1504.5,17.5,-0.5,-0.3,967.786,13.24,0.031,20.8
04,2021-11-02T07:30:00,1000.0,42.79,6.0312,0.009,0.024,-0.001,58.0,61.0,58.0,12.8,1504.5,17.4,-0.5,-0.3,967.767,13.24,0.025,20.6
04,2021-11-02T08:00:00,1000.0,42.79,6.0312,0.003,0.028,0.006,55.0,60.0,56.0,12.8,1504.5,16.7,-0.5,-0.4,967.747,13.24,0.028,6.1
04,2021-11-02T08:30:00,1000.0,42.79,6.0312,0.009,0.017,-0.011,59.0,62.0,56.0,12.8,1504.5,14.2,-0.4,-0.3,967.759,13.24,0.019,27.9
04,2021-11-02T09:00:00,1000.0,42.79,6.0312,0.008,0.015,0.012,61.0,60.0,57.0,12.8,1504.6,13.1,-0.5,-0.3,967.694,13.25,0.017,28.1
04,2021-11-02T09:30:00,1000.0,42.79,6.0312,0.006,0.011,-0.006,60.0,61.0,59.0,12.8,1504.6,11.9,-0.4,-0.3,967.696,13.25,0.012,28.6
04,2021-11-02T10:30:00,1000.0,42.79,6.0312,0.008,0.004,0.005,57.0,58.0,59.0,12.7,1504.6,8.6,-0.5,-0.3,967.67,13.25,0.008,63.4
04,2021-11-02T11:00:00,1000.0,42.79,6.0312,0.008,0.007,-0.008,60.0,59.0,55.0,12.8,1504.6,8.4,-0.4,-0.3,967.674,13.25,0.01,48.8
04,2021-11-02T11:30:00,1000.0,42.79,6.0312,0.002,0.016,0.001,56.0,60.0,57.0,12.8,1504.6,4.9,-0.5,-0.3,967.672,13.25,0.016,7.1
04,2021-11-02T12:00:00,1000.0,42.79,6.0312,0.0,0.016,-0.011,58.0,59.0,56.0,12.8,1504.6,3.4,-0.5,-0.3,967.68,13.25,0.016,0.0
04,2021-11-02T12:30:00,1000.0,42.79,6.0312,0.0,0.021,0.009,59.0,58.0,57.0,12.8,1504.5,3.1,-0.5,-0.3,967.65,13.24,0.021,0.0
04,2021-11-02T13:00:00,1000.0,42.79,6.0312,-0.001,0.022,0.004,57.0,59.0,58.0,12.8,1504.5,2.3,-0.5,-0.4,967.692,13.24,0.022,357.4
04,2021-11-02T13:30:00,1000.0,42.79,6.0312,0.002,0.021,0.001,56.0,62.0,56.0,12.8,1504.5,3.9,-0.5,-0.3,967.732,13.24,0.021,5.4
04,2021-11-02T14:00:00,1000.0,42.79,6.0312,0.001,0.024,0.0,57.0,59.0,56.0,12.7,1504.6,4.4,-0.5,-0.4,967.732,13.25,0.024,2.4
04,2021-11-02T14:30:00,1000.0,42.79,6.0312,0.006,0.038,0.005,56.0,59.0,55.0,12.7,1504.5,6.7,-0.5,-0.4,967.765,13.24,0.038,9.0
04,2021-11-02T15:00:00,1000.0,42.79,6.0312,0.008,0.033,-0.002,57.0,57.0,55.0,12.8,1504.5,9.7,-0.5,-0.4,967.806,13.24,0.033,13.6
04,2021-11-02T15:30:00,1000.0,42.79,6.0312,0.012,0.04,0.009,56.0,57.0,57.0,12.7,1504.5,11.4,-0.5,-0.4,967.818,13.24,0.041,16.7
04,2021-11-02T16:00:00,1000.0,42.79,6.0312,0.005,0.035,0.008,58.0,59.0,57.0,12.8,1504.5,14.1,-0.5,-0.4,967.83,13.24,0.035,8.1
04,2021-11-02T16:30:00,1000.0,42.79,6.0312,0.006,0.035,0.0,57.0,59.0,55.0,12.8,1504.5,15.9,-0.5,-0.3,967.875,13.24,0.035,9.7
04,2021-11-02T17:00:00,1000.0,42.79,6.0312,0.004,0.032,0.004,57.0,59.0,55.0,12.8,1504.5,18.9,-0.5,-0.3,967.879,13.24,0.032,7.1
04,2021-11-02T17:30:00,1000.0,42.79,6.0312,0.002,0.036,0.001,58.0,58.0,56.0,12.8,1504.5,21.9,-0.5,-0.4,967.873,13.24,0.036,3.2
04,2021-11-02T18:00:00,1000.0,42.79,6.0312,0.01,0.028,0.002,57.0,61.0,56.0,12.7,1504.5,23.6,-0.5,-0.4,967.831,13.24,0.029,19.6
04,2021-11-02T18:30:00,1000.0,42.79,6.0312,0.013,0.029,0.001,59.0,59.0,57.0,12.8,1504.5,25.3,-0.5,-0.3,967.893,13.24,0.031,24.1
04,2021-11-02T19:00:00,1000.0,42.79,6.0312,0.018,0.03,0.0,56.0,59.0,55.0,12.8,1504.5,28.1,-0.5,-0.3,967.839,13.24,0.034,31.0
04,2021-11-02T19:30:00,1000.0,42.79,6.0312,0.006,0.026,-0.006,56.0,61.0,56.0,12.8,1504.5,29.3,-0.4,-0.3,967.816,13.24,0.026,13.0
04,2021-11-02T20:00:00,1000.0,42.79,6.0312,0.015,0.02,0.0,56.0,61.0,55.0,12.8,1504.6,30.4,-0.5,-0.3,967.801,13.25,0.025,36.9
04,2021-11-02T20:30:00,1000.0,42.79,6.0312,0.029,0.016,0.02,58.0,59.0,56.0,12.8,1504.6,32.4,-0.5,-0.3,967.827,13.25,0.033,61.1
04,2021-11-02T21:00:00,1000.0,42.79,6.0312,0.026,0.024,0.009,58.0,60.0,56.0,12.8,1504.5,31.8,-0.4,-0.3,967.739,13.24,0.035,47.3
